Tracking 31027 objects as of 19-Jul-2025
HD Live streaming from Space Station
objects crossing your sky now

YAOGAN-40 01B

Track YAOGAN-40 01B now!
10-day predictions


NORAD ID: 57832
Int'l Code: 2023-139C
Perigee: 856.9 km
Apogee: 860.1 km
Inclination: 86.0 °
Period: 102.0 minutes
Semi major axis: 7229 km
RCS: Unknown
Launch date: September 10, 2023
Source: People's Republic of China (PRC)
Launch site: Taiyaun Space Center, China (TSC)
Your satellite tracking list
STARLINK-4010
Track 1 satellite(s)




NASA's NSSDC Master Catalog

Two Line Element Set (TLE):
1 57832U 23139C   25199.82756457  .00000116  00000-0  52877-4 0  9994
2 57832  85.9884  49.5157 0002181  95.8950 264.2482 14.12346028 95652
Source of the keplerian elements: AFSPC